RYR59DR EGSS-EPSC

Flight info

Callsign RYR59DR
Flight time N/A
Altitude 37000
Route CLN P44 RATLO M197 REDFA L620 TACHA DCT VIBIS L619 TABOK L733 BODLA
Aircraft B738/M-SDE2E3FGHIRWXY/LB1

Departure

Time 2026-05-05 08:25
Airport London Stansted Airport (EGSS)

Arrival

Time N/A
Airport Solidarity Szczecin–Goleniów Airport (EPSC)
Time Latitude Longitude Altitude Speed Heading
2026-05-05 08:08 51.89238 0.25959 351 ft 0 kts 43°
2026-05-05 08:15 51.89229 0.25946 358 ft 4 kts 43°
2026-05-05 08:15 51.89214 0.25922 351 ft 4 kts 31°
2026-05-05 08:16 51.89194 0.25918 357 ft 4 kts 319°
2026-05-05 08:16 51.89178 0.25946 358 ft 2 kts 313°
2026-05-05 08:16 51.89176 0.25948 359 ft 0 kts 313°
2026-05-05 08:18 51.89186 0.25930 358 ft 5 kts 313°
2026-05-05 08:18 51.89215 0.25879 354 ft 8 kts 313°
2026-05-05 08:19 51.89259 0.25803 356 ft 11 kts 313°
2026-05-05 08:19 51.89307 0.25721 356 ft 14 kts 313°
2026-05-05 08:19 51.89364 0.25587 351 ft 16 kts 269°
2026-05-05 08:19 51.89293 0.25454 353 ft 16 kts 223°
2026-05-05 08:20 51.89206 0.25323 360 ft 19 kts 223°
2026-05-05 08:20 51.89105 0.25170 353 ft 21 kts 223°
2026-05-05 08:20 51.88993 0.24998 358 ft 23 kts 223°
2026-05-05 08:20 51.88872 0.24813 356 ft 24 kts 222°
2026-05-05 08:21 51.88766 0.24656 356 ft 23 kts 222°
2026-05-05 08:21 51.88654 0.24491 353 ft 23 kts 222°
2026-05-05 08:21 51.88540 0.24321 349 ft 22 kts 223°
2026-05-05 08:21 51.88432 0.24158 348 ft 21 kts 223°
2026-05-05 08:22 51.88329 0.24002 346 ft 21 kts 223°
2026-05-05 08:22 51.88224 0.23842 352 ft 20 kts 223°
2026-05-05 08:22 51.88118 0.23687 341 ft 20 kts 221°
2026-05-05 08:22 51.88019 0.23543 337 ft 20 kts 222°
2026-05-05 08:23 51.87919 0.23395 336 ft 18 kts 223°
2026-05-05 08:23 51.87881 0.23241 336 ft 17 kts 305°
2026-05-05 08:23 51.87909 0.23081 333 ft 16 kts 233°
2026-05-05 08:23 51.87829 0.22958 337 ft 16 kts 229°
2026-05-05 08:24 51.87861 0.22809 334 ft 17 kts 312°
2026-05-05 08:24 51.87945 0.22686 333 ft 17 kts 348°
2026-05-05 08:24 51.88056 0.22811 330 ft 33 kts 43°
2026-05-05 08:24 51.88410 0.23343 341 ft 104 kts 42°
2026-05-05 08:25 51.89096 0.24365 364 ft 161 kts 41°
2026-05-05 08:25 51.89921 0.25611 1004 ft 166 kts 41°
2026-05-05 08:25 51.90763 0.26924 1770 ft 171 kts 46°
2026-05-05 08:25 51.91463 0.28649 2154 ft 200 kts 67°
2026-05-05 08:26 51.91709 0.30898 2658 ft 206 kts 94°
2026-05-05 08:26 51.91308 0.33181 2991 ft 229 kts 113°
2026-05-05 08:26 51.90546 0.35628 3271 ft 255 kts 114°
2026-05-05 08:26 51.89742 0.38244 3965 ft 262 kts 114°
2026-05-05 08:27 51.88936 0.40914 4769 ft 266 kts 114°
2026-05-05 08:27 51.88128 0.43621 5586 ft 268 kts 114°
2026-05-05 08:27 51.87320 0.46360 6392 ft 271 kts 114°
2026-05-05 08:27 51.86505 0.49129 7140 ft 275 kts 114°
2026-05-05 08:28 51.85675 0.51958 7849 ft 281 kts 114°
2026-05-05 08:28 51.84832 0.54823 8603 ft 284 kts 115°
2026-05-05 08:28 51.83978 0.57724 9340 ft 288 kts 115°
2026-05-05 08:28 51.83239 0.60750 10040 ft 292 kts 103°
2026-05-05 08:29 51.82941 0.64050 10447 ft 308 kts 91°
2026-05-05 08:29 51.83026 0.67628 10690 ft 328 kts 85°
2026-05-05 08:29 51.83197 0.71362 11229 ft 337 kts 85°
2026-05-05 08:30 51.83531 0.79028 12603 ft 346 kts 86°
2026-05-05 08:30 51.83680 0.82925 13346 ft 349 kts 86°
2026-05-05 08:30 51.83823 0.86847 14091 ft 351 kts 86°
2026-05-05 08:30 51.83964 0.90818 14821 ft 355 kts 86°
2026-05-05 08:31 51.84106 0.94820 15534 ft 359 kts 86°
2026-05-05 08:31 51.84248 0.98868 16229 ft 363 kts 87°
2026-05-05 08:31 51.84392 1.02963 16932 ft 366 kts 87°
2026-05-05 08:31 51.84537 1.07091 17614 ft 369 kts 87°
2026-05-05 08:32 51.84680 1.11258 18253 ft 374 kts 87°
2026-05-05 08:32 51.84954 1.15451 18867 ft 378 kts 76°
2026-05-05 08:32 51.85912 1.19429 19482 ft 382 kts 66°
2026-05-05 08:32 51.87016 1.23367 20070 ft 386 kts 66°
2026-05-05 08:33 51.88132 1.27344 20626 ft 390 kts 66°
2026-05-05 08:33 51.89247 1.31371 21185 ft 394 kts 66°
2026-05-05 08:33 51.90348 1.35404 21711 ft 399 kts 67°
2026-05-05 08:33 51.91465 1.39535 22248 ft 402 kts 67°
2026-05-05 08:34 51.92598 1.43758 22775 ft 406 kts 67°
2026-05-05 08:34 51.93724 1.47971 23257 ft 409 kts 67°
2026-05-05 08:34 51.94844 1.52172 23740 ft 413 kts 68°
2026-05-05 08:34 51.95977 1.56429 24218 ft 416 kts 68°
2026-05-05 08:35 51.97129 1.60760 24686 ft 420 kts 68°
2026-05-05 08:35 51.98288 1.65128 25135 ft 423 kts 68°
2026-05-05 08:35 51.99389 1.69574 25525 ft 427 kts 73°
2026-05-05 08:35 52.00205 1.74226 25919 ft 431 kts 77°
2026-05-05 08:36 52.00926 1.78966 26313 ft 434 kts 77°
2026-05-05 08:36 52.01626 1.83749 26709 ft 438 kts 77°
2026-05-05 08:36 52.02336 1.88579 27079 ft 441 kts 77°
2026-05-05 08:36 52.03064 1.93444 27455 ft 445 kts 77°
2026-05-05 08:37 52.03808 1.98335 27834 ft 448 kts 77°
2026-05-05 08:37 52.04565 2.03256 28181 ft 451 kts 77°
2026-05-05 08:37 52.05328 2.08212 28503 ft 454 kts 77°
2026-05-05 08:37 52.06097 2.13210 28829 ft 457 kts 77°
2026-05-05 08:38 52.06868 2.18236 29137 ft 461 kts 77°
2026-05-05 08:38 52.07643 2.23303 29452 ft 463 kts 77°
2026-05-05 08:38 52.08420 2.28396 29756 ft 466 kts 77°
2026-05-05 08:38 52.09199 2.33532 30073 ft 468 kts 77°
2026-05-05 08:39 52.09978 2.38680 30377 ft 470 kts 77°
2026-05-05 08:39 52.10759 2.43856 30685 ft 472 kts 77°
2026-05-05 08:39 52.11544 2.49044 30998 ft 473 kts 76°
2026-05-05 08:39 52.12433 2.54212 31322 ft 474 kts 74°
2026-05-05 08:40 52.13404 2.59331 31755 ft 472 kts 73°
2026-05-05 08:40 52.14398 2.64399 32221 ft 469 kts 73°
2026-05-05 08:40 52.15386 2.69441 32642 ft 467 kts 73°
2026-05-05 08:40 52.16359 2.74468 32977 ft 466 kts 74°
2026-05-05 08:41 52.17320 2.79511 33318 ft 465 kts 74°
2026-05-05 08:41 52.18267 2.84540 33703 ft 463 kts 75°
2026-05-05 08:41 52.19206 2.89556 34022 ft 463 kts 75°
2026-05-05 08:41 52.20142 2.94575 34315 ft 463 kts 75°
2026-05-05 08:42 52.21077 2.99602 34560 ft 464 kts 75°
2026-05-05 08:42 52.22010 3.04635 34840 ft 463 kts 75°
2026-05-05 08:42 52.22942 3.09671 35096 ft 464 kts 75°
2026-05-05 08:42 52.23874 3.14710 35323 ft 465 kts 75°
2026-05-05 08:43 52.24807 3.19769 35569 ft 465 kts 75°
2026-05-05 08:43 52.25720 3.24831 35814 ft 465 kts 77°
2026-05-05 08:43 52.26451 3.29967 36049 ft 464 kts 80°
2026-05-05 08:43 52.27071 3.35137 36269 ft 464 kts 81°
2026-05-05 08:44 52.27639 3.40266 36433 ft 466 kts 81°
2026-05-05 08:44 52.28206 3.45481 36641 ft 467 kts 81°
2026-05-05 08:44 52.28777 3.50691 36906 ft 465 kts 81°
2026-05-05 08:45 52.29952 3.61131 36996 ft 469 kts 81°
2026-05-05 08:45 52.31145 3.71532 36978 ft 461 kts 81°
2026-05-05 08:46 52.32313 3.81734 36983 ft 456 kts 81°
2026-05-05 08:46 52.33472 3.91917 36983 ft 456 kts 81°
2026-05-05 08:47 52.34622 4.02120 36977 ft 456 kts 81°
2026-05-05 08:47 52.35763 4.12334 36973 ft 457 kts 81°
2026-05-05 08:48 52.36896 4.22571 36976 ft 458 kts 81°
2026-05-05 08:48 52.38024 4.32833 36970 ft 458 kts 81°
2026-05-05 08:49 52.39143 4.43114 36962 ft 460 kts 81°
2026-05-05 08:49 52.40257 4.53436 36952 ft 460 kts 81°
2026-05-05 08:50 52.41363 4.63768 36948 ft 461 kts 81°
2026-05-05 08:50 52.42461 4.74116 36941 ft 461 kts 82°
2026-05-05 08:51 52.43552 4.84469 36941 ft 461 kts 82°
2026-05-05 08:51 52.44631 4.94815 36945 ft 461 kts 82°
2026-05-05 08:52 52.45699 5.05176 36951 ft 460 kts 82°
2026-05-05 08:52 52.46760 5.15522 36954 ft 460 kts 82°
2026-05-05 08:53 52.47810 5.25858 36960 ft 459 kts 82°
2026-05-05 08:53 52.48849 5.36190 36964 ft 459 kts 82°
2026-05-05 08:54 52.49874 5.46473 36967 ft 460 kts 82°
2026-05-05 08:54 52.50898 5.56849 36963 ft 460 kts 82°
2026-05-05 08:55 52.51914 5.67227 36966 ft 461 kts 82°
2026-05-05 08:55 52.52925 5.77627 36961 ft 461 kts 83°
2026-05-05 08:56 52.53925 5.88037 36965 ft 462 kts 83°
2026-05-05 08:56 52.54914 5.98472 36964 ft 463 kts 83°
2026-05-05 08:57 52.55897 6.08921 36956 ft 463 kts 83°
2026-05-05 08:57 52.56871 6.19371 36955 ft 463 kts 83°
2026-05-05 08:58 52.57837 6.29847 36954 ft 464 kts 83°
2026-05-05 08:58 52.58795 6.40329 36960 ft 464 kts 83°
2026-05-05 08:59 52.59743 6.50812 36966 ft 464 kts 83°
2026-05-05 08:59 52.60684 6.61310 36961 ft 464 kts 83°
2026-05-05 09:00 52.61615 6.71808 36966 ft 464 kts 83°
2026-05-05 09:00 52.62538 6.82343 36963 ft 464 kts 83°
2026-05-05 09:01 52.63452 6.92858 36962 ft 465 kts 83°
2026-05-05 09:01 52.64356 7.03401 36966 ft 465 kts 83°
2026-05-05 09:02 52.65251 7.13949 36963 ft 465 kts 84°
2026-05-05 09:02 52.66137 7.24496 36961 ft 465 kts 84°
2026-05-05 09:03 52.67015 7.35063 36966 ft 465 kts 84°
2026-05-05 09:03 52.67884 7.45627 36960 ft 465 kts 84°
2026-05-05 09:04 52.68737 7.56124 36963 ft 465 kts 84°
2026-05-05 09:04 52.69450 7.64987 36959 ft 466 kts 84°
2026-05-05 09:05 52.70426 7.77284 36959 ft 466 kts 84°
2026-05-05 09:05 52.71257 7.87879 36955 ft 466 kts 84°
2026-05-05 09:06 52.71946 7.96765 36954 ft 466 kts 84°
2026-05-05 09:06 52.72762 8.07387 36940 ft 467 kts 85°
2026-05-05 09:07 52.73565 8.17950 36948 ft 467 kts 85°
2026-05-05 09:07 52.74362 8.28600 36945 ft 468 kts 85°
2026-05-05 09:08 52.75152 8.39280 36946 ft 469 kts 85°
2026-05-05 09:08 52.75935 8.49975 36934 ft 470 kts 85°
2026-05-05 09:09 52.76708 8.60675 36937 ft 469 kts 85°
2026-05-05 09:09 52.77470 8.71383 36932 ft 469 kts 85°
2026-05-05 09:10 52.78223 8.82078 36933 ft 468 kts 85°
2026-05-05 09:10 52.78958 8.92706 36937 ft 468 kts 85°
2026-05-05 09:11 52.79691 9.03385 36933 ft 468 kts 85°
2026-05-05 09:11 52.80411 9.14047 36936 ft 467 kts 85°
2026-05-05 09:12 52.81124 9.24729 36923 ft 467 kts 85°
2026-05-05 09:12 52.81824 9.35401 36932 ft 467 kts 85°
2026-05-05 09:13 52.82515 9.46039 36924 ft 467 kts 85°
2026-05-05 09:13 52.83198 9.56732 36919 ft 466 kts 85°
2026-05-05 09:14 52.83869 9.67392 36917 ft 466 kts 85°
2026-05-05 09:14 52.84530 9.78053 36922 ft 466 kts 86°
2026-05-05 09:15 52.85183 9.88721 36921 ft 466 kts 86°
2026-05-05 09:15 52.85826 9.99405 36906 ft 466 kts 86°
2026-05-05 09:16 52.86459 10.10088 36908 ft 467 kts 86°
2026-05-05 09:16 52.87084 10.20792 36925 ft 467 kts 86°
2026-05-05 09:17 52.87700 10.31512 36919 ft 468 kts 86°
2026-05-05 09:17 52.88309 10.42248 36922 ft 469 kts 86°
2026-05-05 09:18 52.88906 10.52994 36919 ft 469 kts 86°
2026-05-05 09:18 52.89491 10.63679 36922 ft 469 kts 86°
2026-05-05 09:19 52.90070 10.74436 36920 ft 470 kts 86°
2026-05-05 09:19 52.90641 10.85216 36921 ft 470 kts 86°
2026-05-05 09:20 52.91200 10.95990 36912 ft 469 kts 87°
2026-05-05 09:20 52.91748 11.06720 36909 ft 469 kts 87°
2026-05-05 09:21 52.92289 11.17501 36916 ft 469 kts 87°
2026-05-05 09:21 52.92818 11.28254 36926 ft 468 kts 87°
2026-05-05 09:22 52.93338 11.38990 36936 ft 467 kts 87°
2026-05-05 09:22 52.93847 11.49731 36935 ft 467 kts 87°
2026-05-05 09:23 52.94345 11.60471 36764 ft 469 kts 87°
2026-05-05 09:23 52.94592 11.65884 36323 ft 470 kts 87°
2026-05-05 09:23 52.94837 11.71276 35796 ft 468 kts 87°
2026-05-05 09:23 52.95080 11.76657 35238 ft 469 kts 87°
2026-05-05 09:24 52.95320 11.82057 34661 ft 470 kts 87°
2026-05-05 09:24 52.95559 11.87464 34068 ft 471 kts 87°
2026-05-05 09:24 52.95795 11.92886 33474 ft 472 kts 88°
2026-05-05 09:24 52.96029 11.98327 32856 ft 474 kts 88°
2026-05-05 09:25 52.96261 12.03794 32236 ft 475 kts 88°
2026-05-05 09:25 52.96490 12.09235 31785 ft 472 kts 88°
2026-05-05 09:25 52.96717 12.14658 31322 ft 469 kts 88°
2026-05-05 09:25 52.96940 12.20039 30863 ft 466 kts 88°
2026-05-05 09:26 52.97160 12.25389 30414 ft 463 kts 88°
2026-05-05 09:26 52.97374 12.30703 29963 ft 460 kts 88°
2026-05-05 09:26 52.97522 12.35983 29509 ft 455 kts 93°
2026-05-05 09:26 52.97413 12.41194 29071 ft 451 kts 96°